Regional Weather Roundup
Issued by NWS

Home | Current Version | Previous Version | Graphics & Text | Print | Product List | Glossary On
Versions: 1 2 3 4 5 6 7 8 9 10 11 12 13 14 15 16 17 18 19 20 21 22 23 24 25 26 27 28 29 30 31 32 33 34 35 36 37 38 39 40 41 42 43 44 45 46 47 48 49 50
000
ASUS43 KLMK 232102
RWRKY
KENTUCKY REGIONAL WEATHER ROUNDUP
NATIONAL WEATHER SERVICE LOUISVILLE KY
500 PM EDT THU MAR 23 2017

NOTE "FAIR" INDICATES FEW OR NO CLOUDS BELOW 12,000 FEET
WITH NO SIGNIFICANT WEATHER AND/OR OBSTRUCTIONS TO VISIBILITY.

KYZ001>023-026-027-061>063-070>075-232200-
WESTERN AND SOUTH CENTRAL KENTUCKY

CITY           SKY/WX    TMP DP  RH WIND       PRES   REMARKS
PADUCAH        SUNNY     60  42  51 NE9       30.19F
HENDERSON      CLOUDY    48  37  66 SE9       30.23F
OWENSBORO      CLOUDY    51  39  63 SE12      30.26F
HOPKINSVILLE   NOT AVBL
BOWLING GREEN  CLOUDY    55  45  68 E5        30.27F
GLASGOW        NOT AVBL
$$

KYZ024-025-028>034-038-045-046-053-232200-
NORTH CENTRAL KENTUCKY

CITY           SKY/WX    TMP DP  RH WIND       PRES   REMARKS
LOUISVILLE/SDF CLOUDY    62  27  26 S12       30.25F
LOUISVILLE/LOU CLOUDY    62  30  29 SE8       30.27F
FORT KNOX      CLOUDY    61  33  35 S8        30.25F
$$

KYZ035>037-039>044-047>052-055>060-089>105-232200-
NORTHEAST KENTUCKY

CITY           SKY/WX    TMP DP  RH WIND       PRES   REMARKS
LEXINGTON      PTSUNNY   62  28  27 S8        30.28F
COVINGTON      MOSUNNY   59  24  26 S10       30.26F
FRANKFORT      SUNNY     63  27  25 S6        30.27F
$$

KYZ054-064>069-076>088-106>120-232200-
SOUTHEAST KENTUCKY

CITY           SKY/WX    TMP DP  RH WIND       PRES   REMARKS
JACKSON        SUNNY     67  28  23 VRB3      30.30F
LONDON         MOSUNNY   65  27  23 S7        30.30F
SOMERSET       NOT AVBL
MIDDLESBORO    MOSUNNY   64  33  31 S8        30.34F
MONTICELLO     MOCLDY    67  36  31 NW10      30.29F
$$





USA.gov is the U.S. government's official web portal to all federal, state and local government web resources and services.